Location: Central Springs High School
(43.2862°N, 93.1962°W)
Time: 07:22:33
(UTC+00:00)

BlueWalker 3 - Pass Details

Date: 12 October 2024
Orbit: 470 x 482 km, 53.2° (Epoch: 03 November)

Event Time Altitude Azimuth Distance (km) Brightness Sun altitude
Exits shadow 11:16:35 11° 317° (NW) 1,546 4.0 -13.0°
Maximum altitude 11:18:46 17° 356° (N) 1,248 3.9 -12.6°
Drops below altitude 10° 11:21:19 10° 40° (NE) 1,636 5.1 -12.1°
Sets 11:24:02 0° 61° (ENE) 2,516 6.7 -11.6°
